Year,Month,Day,Hour,Minute,Value (Times are PST for temperature in C)
2013,12,18,00,00,7.30
2013,12,18,00,01,7.30
2013,12,18,00,02,7.20
2013,12,18,00,03,7.20
2013,12,18,00,04,7.20
2013,12,18,00,05,7.20
2013,12,18,00,06,7.20
2013,12,18,00,07,7.10
2013,12,18,00,08,7.10
2013,12,18,00,09,7.10
2013,12,18,00,10,7.10
2013,12,18,00,11,7.10
2013,12,18,00,12,7.10
2013,12,18,00,13,7.10
2013,12,18,00,14,7.10
2013,12,18,00,15,7.10
2013,12,18,00,16,7.10
2013,12,18,00,17,7.00
2013,12,18,00,18,7.00
2013,12,18,00,19,7.00
2013,12,18,00,20,7.00
2013,12,18,00,21,7.00
2013,12,18,00,22,7.00
2013,12,18,00,23,6.90
2013,12,18,00,24,6.90
2013,12,18,00,25,6.90
2013,12,18,00,26,6.90
2013,12,18,00,27,6.90
2013,12,18,00,28,6.90
2013,12,18,00,29,6.80
2013,12,18,00,30,6.80
2013,12,18,00,31,6.80
2013,12,18,00,32,6.80
2013,12,18,00,33,6.80
2013,12,18,00,34,6.80
2013,12,18,00,35,6.80
2013,12,18,00,36,6.70
2013,12,18,00,37,6.70
2013,12,18,00,38,6.70
2013,12,18,00,39,6.70
2013,12,18,00,40,6.70
2013,12,18,00,41,6.80
2013,12,18,00,42,6.80
2013,12,18,00,43,6.80
2013,12,18,00,44,6.80
2013,12,18,00,45,6.80
2013,12,18,00,46,6.80
2013,12,18,00,47,6.80
2013,12,18,00,48,6.80
2013,12,18,00,49,6.80
2013,12,18,00,50,6.80
2013,12,18,00,51,6.80
2013,12,18,00,52,6.80
2013,12,18,00,53,6.80
2013,12,18,00,54,6.80
2013,12,18,00,55,6.80
2013,12,18,00,56,6.80
2013,12,18,00,57,6.80
2013,12,18,00,58,6.80
2013,12,18,00,59,6.80
2013,12,18,01,00,6.80
2013,12,18,01,01,6.80
2013,12,18,01,02,6.80
2013,12,18,01,03,6.80
2013,12,18,01,04,6.80
2013,12,18,01,05,6.80
2013,12,18,01,06,6.80
2013,12,18,01,07,6.80
2013,12,18,01,08,6.80
2013,12,18,01,09,6.80
2013,12,18,01,10,6.80
2013,12,18,01,11,6.80
2013,12,18,01,12,6.80
2013,12,18,01,13,6.80
2013,12,18,01,14,6.80
2013,12,18,01,15,6.80
2013,12,18,01,16,6.80
2013,12,18,01,17,6.80
2013,12,18,01,18,6.80
2013,12,18,01,19,6.80
2013,12,18,01,20,6.90
2013,12,18,01,21,6.90
2013,12,18,01,22,6.90
2013,12,18,01,23,6.80
2013,12,18,01,24,6.80
2013,12,18,01,25,6.80
2013,12,18,01,26,6.80
2013,12,18,01,27,6.80
2013,12,18,01,28,6.80
2013,12,18,01,29,6.80
2013,12,18,01,30,6.80
2013,12,18,01,31,6.80
2013,12,18,01,32,6.80
2013,12,18,01,33,6.80
2013,12,18,01,34,6.80
2013,12,18,01,35,6.80
2013,12,18,01,36,6.80
2013,12,18,01,37,6.80
2013,12,18,01,38,6.80
2013,12,18,01,39,6.80
2013,12,18,01,40,6.80
2013,12,18,01,41,6.80
2013,12,18,01,42,6.80
2013,12,18,01,43,6.80
2013,12,18,01,44,6.80
2013,12,18,01,45,6.80
2013,12,18,01,46,6.80
2013,12,18,01,47,6.80
2013,12,18,01,48,6.80
2013,12,18,01,49,6.80
2013,12,18,01,50,6.80
2013,12,18,01,51,6.80
2013,12,18,01,52,6.80
2013,12,18,01,53,6.80
2013,12,18,01,54,6.80
2013,12,18,01,55,6.80
2013,12,18,01,56,6.80
2013,12,18,01,57,6.80
2013,12,18,01,58,6.80
2013,12,18,01,59,6.80
2013,12,18,02,00,6.80
2013,12,18,02,01,6.80
2013,12,18,02,02,6.80
2013,12,18,02,03,6.80
2013,12,18,02,04,6.70
2013,12,18,02,05,6.70
2013,12,18,02,06,6.70
2013,12,18,02,07,6.70
2013,12,18,02,08,6.70
2013,12,18,02,09,6.70
2013,12,18,02,10,6.70
2013,12,18,02,11,6.70
2013,12,18,02,12,6.70
2013,12,18,02,13,6.70
2013,12,18,02,14,6.70
2013,12,18,02,15,6.70
2013,12,18,02,16,6.70
2013,12,18,02,17,6.70
2013,12,18,02,18,6.70
2013,12,18,02,19,6.70
2013,12,18,02,20,6.70
2013,12,18,02,21,6.70
2013,12,18,02,22,6.70
2013,12,18,02,23,6.70
2013,12,18,02,24,6.70
2013,12,18,02,25,6.70
2013,12,18,02,26,6.70
2013,12,18,02,27,6.70
2013,12,18,02,28,6.70
2013,12,18,02,29,6.70
2013,12,18,02,30,6.70
2013,12,18,02,31,6.70
2013,12,18,02,32,6.70
2013,12,18,02,33,6.60
2013,12,18,02,34,6.60
2013,12,18,02,35,6.70
2013,12,18,02,36,6.70
2013,12,18,02,37,6.70
2013,12,18,02,38,6.70
2013,12,18,02,39,6.70
2013,12,18,02,40,6.70
2013,12,18,02,41,6.70
2013,12,18,02,42,6.70
2013,12,18,02,43,6.70
2013,12,18,02,44,6.60
2013,12,18,02,45,6.60
2013,12,18,02,46,6.60
2013,12,18,02,47,6.60
2013,12,18,02,48,6.60
2013,12,18,02,49,6.60
2013,12,18,02,50,6.60
2013,12,18,02,51,6.60
2013,12,18,02,52,6.60
2013,12,18,02,53,6.60
2013,12,18,02,54,6.60
2013,12,18,02,55,6.60
2013,12,18,02,56,6.60
2013,12,18,02,57,6.60
2013,12,18,02,58,6.60
2013,12,18,02,59,6.60
2013,12,18,03,00,6.60
2013,12,18,03,01,6.60
2013,12,18,03,02,6.60
2013,12,18,03,03,6.60
2013,12,18,03,04,6.60
2013,12,18,03,05,6.60
2013,12,18,03,06,6.50
2013,12,18,03,07,6.50
2013,12,18,03,08,6.50
2013,12,18,03,09,6.50
2013,12,18,03,10,6.50
2013,12,18,03,11,6.50
2013,12,18,03,12,6.40
2013,12,18,03,13,6.40
2013,12,18,03,14,6.40
2013,12,18,03,15,6.40
2013,12,18,03,16,6.40
2013,12,18,03,17,6.40
2013,12,18,03,18,6.30
2013,12,18,03,19,6.30
2013,12,18,03,20,6.30
2013,12,18,03,21,6.30
2013,12,18,03,22,6.20
2013,12,18,03,23,6.20
2013,12,18,03,24,6.20
2013,12,18,03,25,6.20
2013,12,18,03,26,6.20
2013,12,18,03,27,6.20
2013,12,18,03,28,6.10
2013,12,18,03,29,6.10
2013,12,18,03,30,6.10
2013,12,18,03,31,6.10
2013,12,18,03,32,6.10
2013,12,18,03,33,6.10
2013,12,18,03,34,6.10
2013,12,18,03,35,6.10
2013,12,18,03,36,6.10
2013,12,18,03,37,6.10
2013,12,18,03,38,6.10
2013,12,18,03,39,6.10
2013,12,18,03,40,6.10
2013,12,18,03,41,6.10
2013,12,18,03,42,6.10
2013,12,18,03,43,6.10
2013,12,18,03,44,6.10
2013,12,18,03,45,6.10
2013,12,18,03,46,6.10
2013,12,18,03,47,6.10
2013,12,18,03,48,6.10
2013,12,18,03,49,6.10
2013,12,18,03,50,6.10
2013,12,18,03,51,6.10
2013,12,18,03,52,6.00
2013,12,18,03,53,6.00
2013,12,18,03,54,6.00
2013,12,18,03,55,6.00
2013,12,18,03,56,6.00
2013,12,18,03,57,6.00
2013,12,18,03,58,6.00
2013,12,18,03,59,6.00
2013,12,18,04,00,6.00
2013,12,18,04,01,6.00
2013,12,18,04,02,6.00
2013,12,18,04,03,6.00
2013,12,18,04,04,6.00
2013,12,18,04,05,6.00
2013,12,18,04,06,5.90
2013,12,18,04,07,5.90
2013,12,18,04,08,5.90
2013,12,18,04,09,5.90
2013,12,18,04,10,5.90
2013,12,18,04,11,5.90
2013,12,18,04,12,5.90
2013,12,18,04,13,5.90
2013,12,18,04,14,5.80
2013,12,18,04,15,5.80
2013,12,18,04,16,5.80
2013,12,18,04,17,5.80
2013,12,18,04,18,5.80
2013,12,18,04,19,5.80
2013,12,18,04,20,5.70
2013,12,18,04,21,5.70
2013,12,18,04,22,5.70
2013,12,18,04,23,5.60
2013,12,18,04,24,5.60
2013,12,18,04,25,5.60
2013,12,18,04,26,5.60
2013,12,18,04,27,5.60
2013,12,18,04,28,5.60
2013,12,18,04,29,5.50
2013,12,18,04,30,5.50
2013,12,18,04,31,5.50
2013,12,18,04,32,5.50
2013,12,18,04,33,5.50
2013,12,18,04,34,5.60
2013,12,18,04,35,5.60
2013,12,18,04,36,5.60
2013,12,18,04,37,5.60
2013,12,18,04,38,5.60
2013,12,18,04,39,5.60
2013,12,18,04,40,5.60
2013,12,18,04,41,5.60
2013,12,18,04,42,5.60
2013,12,18,04,43,5.50
2013,12,18,04,44,5.50
2013,12,18,04,45,5.50
2013,12,18,04,46,5.40
2013,12,18,04,47,5.40
2013,12,18,04,48,5.40
2013,12,18,04,49,5.30
2013,12,18,04,50,5.20
2013,12,18,04,51,5.20
2013,12,18,04,52,5.10
2013,12,18,04,53,5.10
2013,12,18,04,54,5.00
2013,12,18,04,55,4.90
2013,12,18,04,56,4.90
2013,12,18,04,57,4.90
2013,12,18,04,58,4.80
2013,12,18,04,59,4.80
2013,12,18,05,00,4.80
2013,12,18,05,01,4.80
2013,12,18,05,02,4.80
2013,12,18,05,03,4.80
2013,12,18,05,04,4.80
2013,12,18,05,05,4.90
2013,12,18,05,06,4.90
2013,12,18,05,07,4.90
2013,12,18,05,08,4.90
2013,12,18,05,09,5.00
2013,12,18,05,10,5.00
2013,12,18,05,11,5.00
2013,12,18,05,12,5.00
2013,12,18,05,13,5.00
2013,12,18,05,14,5.00
2013,12,18,05,15,5.00
2013,12,18,05,16,5.00
2013,12,18,05,17,5.00
2013,12,18,05,18,5.00
2013,12,18,05,19,4.90
2013,12,18,05,20,4.90
2013,12,18,05,21,4.90
2013,12,18,05,22,4.90
2013,12,18,05,23,4.90
2013,12,18,05,24,4.90
2013,12,18,05,25,4.90
2013,12,18,05,26,4.90
2013,12,18,05,27,4.90
2013,12,18,05,28,4.90
2013,12,18,05,29,4.90
2013,12,18,05,30,4.90
2013,12,18,05,31,4.90
2013,12,18,05,32,4.80
2013,12,18,05,33,4.80
2013,12,18,05,34,4.80
2013,12,18,05,35,4.80
2013,12,18,05,36,4.80
2013,12,18,05,37,4.80
2013,12,18,05,38,4.80
2013,12,18,05,39,4.70
2013,12,18,05,40,4.70
2013,12,18,05,41,4.70
2013,12,18,05,42,4.70
2013,12,18,05,43,4.70
2013,12,18,05,44,4.70
2013,12,18,05,45,4.70
2013,12,18,05,46,4.60
2013,12,18,05,47,4.60
2013,12,18,05,48,4.60
2013,12,18,05,49,4.60
2013,12,18,05,50,4.60
2013,12,18,05,51,4.50
2013,12,18,05,52,4.50
2013,12,18,05,53,4.40
2013,12,18,05,54,4.40
2013,12,18,05,55,4.40
2013,12,18,05,56,4.40
2013,12,18,05,57,4.30
2013,12,18,05,58,4.30
2013,12,18,05,59,4.30
2013,12,18,06,00,4.30
2013,12,18,06,01,4.30
2013,12,18,06,02,4.30
2013,12,18,06,03,4.30
2013,12,18,06,04,4.30
2013,12,18,06,05,4.30
2013,12,18,06,06,4.30
2013,12,18,06,07,4.30
2013,12,18,06,08,4.30
2013,12,18,06,09,4.30
2013,12,18,06,10,4.30
2013,12,18,06,11,4.30
2013,12,18,06,12,4.30
2013,12,18,06,13,4.20
2013,12,18,06,14,4.20
2013,12,18,06,15,4.20
2013,12,18,06,16,4.10
2013,12,18,06,17,4.10
2013,12,18,06,18,4.10
2013,12,18,06,19,4.00
2013,12,18,06,20,4.00
2013,12,18,06,21,3.90
2013,12,18,06,22,3.90
2013,12,18,06,23,3.80
2013,12,18,06,24,3.80
2013,12,18,06,25,3.80
2013,12,18,06,26,3.70
2013,12,18,06,27,3.70
2013,12,18,06,28,3.70
2013,12,18,06,29,3.70
2013,12,18,06,30,3.70
2013,12,18,06,31,3.70
2013,12,18,06,32,3.70
2013,12,18,06,33,3.70
2013,12,18,06,34,3.80
2013,12,18,06,35,3.80
2013,12,18,06,36,3.70
2013,12,18,06,37,3.70
2013,12,18,06,38,3.70
2013,12,18,06,39,3.70
2013,12,18,06,40,3.70
2013,12,18,06,41,3.70
2013,12,18,06,42,3.60
2013,12,18,06,43,3.60
2013,12,18,06,44,3.60
2013,12,18,06,45,3.50
2013,12,18,06,46,3.50
2013,12,18,06,47,3.50
2013,12,18,06,48,3.40
2013,12,18,06,49,3.40
2013,12,18,06,50,3.40
2013,12,18,06,51,3.40
2013,12,18,06,52,3.40
2013,12,18,06,53,3.40
2013,12,18,06,54,3.40
2013,12,18,06,55,3.40
2013,12,18,06,56,3.40
2013,12,18,06,57,3.40
2013,12,18,06,58,3.40
2013,12,18,06,59,3.40
2013,12,18,07,00,3.50
2013,12,18,07,01,3.50
2013,12,18,07,02,3.50
2013,12,18,07,03,3.40
2013,12,18,07,04,3.40
2013,12,18,07,05,3.30
2013,12,18,07,06,3.30
2013,12,18,07,07,3.30
2013,12,18,07,08,3.30
2013,12,18,07,09,3.20
2013,12,18,07,10,3.20
2013,12,18,07,11,3.20
2013,12,18,07,12,3.20
2013,12,18,07,13,3.20
2013,12,18,07,14,3.20
2013,12,18,07,15,3.10
2013,12,18,07,16,3.10
2013,12,18,07,17,3.10
2013,12,18,07,18,3.00
2013,12,18,07,19,3.00
2013,12,18,07,20,2.90
2013,12,18,07,21,2.90
2013,12,18,07,22,2.90
2013,12,18,07,23,2.80
2013,12,18,07,24,2.80
2013,12,18,07,25,2.80
2013,12,18,07,26,2.80
2013,12,18,07,27,2.70
2013,12,18,07,28,2.70
2013,12,18,07,29,2.70
2013,12,18,07,30,2.70
2013,12,18,07,31,2.70
2013,12,18,07,32,2.70
2013,12,18,07,33,2.80
2013,12,18,07,34,2.80
2013,12,18,07,35,2.80
2013,12,18,07,36,2.80
2013,12,18,07,37,2.80
2013,12,18,07,38,2.80
2013,12,18,07,39,2.90
2013,12,18,07,40,2.90
2013,12,18,07,41,2.90
2013,12,18,07,42,2.90
2013,12,18,07,43,2.90
2013,12,18,07,44,2.90
2013,12,18,07,45,2.90
2013,12,18,07,46,2.90
2013,12,18,07,47,2.90
2013,12,18,07,48,2.90
2013,12,18,07,49,2.90
2013,12,18,07,50,2.80
2013,12,18,07,51,2.80
2013,12,18,07,52,2.80
2013,12,18,07,53,2.80
2013,12,18,07,54,2.80
2013,12,18,07,55,2.80
2013,12,18,07,56,2.80
2013,12,18,07,57,2.80
2013,12,18,07,58,2.80
2013,12,18,07,59,2.80
2013,12,18,08,00,2.70
2013,12,18,08,01,2.70
2013,12,18,08,02,2.70
2013,12,18,08,03,2.70
2013,12,18,08,04,2.60
2013,12,18,08,05,2.60
2013,12,18,08,06,2.60
2013,12,18,08,07,2.50
2013,12,18,08,08,2.50
2013,12,18,08,09,2.50
2013,12,18,08,10,2.50
2013,12,18,08,11,2.40
2013,12,18,08,12,2.50
2013,12,18,08,13,2.50
2013,12,18,08,14,2.50
2013,12,18,08,15,2.50
2013,12,18,08,16,2.40
2013,12,18,08,17,2.40
2013,12,18,08,18,2.40
2013,12,18,08,19,2.40
2013,12,18,08,20,2.30
2013,12,18,08,21,2.30
2013,12,18,08,22,2.30
2013,12,18,08,23,2.20
2013,12,18,08,24,2.20
2013,12,18,08,25,2.10
2013,12,18,08,26,2.10
2013,12,18,08,27,2.10
2013,12,18,08,28,2.00
2013,12,18,08,29,2.00
2013,12,18,08,30,2.00
2013,12,18,08,31,1.90
2013,12,18,08,32,1.90
2013,12,18,08,33,1.90
2013,12,18,08,34,1.80
2013,12,18,08,35,1.80
2013,12,18,08,36,1.80
2013,12,18,08,37,1.80
2013,12,18,08,38,1.80
2013,12,18,08,39,1.70
2013,12,18,08,40,1.70
2013,12,18,08,41,1.70
2013,12,18,08,42,1.70
2013,12,18,08,43,1.70
2013,12,18,08,44,1.70
2013,12,18,08,45,1.70
2013,12,18,08,46,1.60
2013,12,18,08,47,1.60
2013,12,18,08,48,1.60
2013,12,18,08,49,1.60
2013,12,18,08,50,1.60
2013,12,18,08,51,1.60
2013,12,18,08,52,1.60
2013,12,18,08,53,1.60
2013,12,18,08,54,1.60
2013,12,18,08,55,1.60
2013,12,18,08,56,1.60
2013,12,18,08,57,1.60
2013,12,18,08,58,1.60
2013,12,18,08,59,1.60
2013,12,18,09,00,1.60
2013,12,18,09,01,1.60
2013,12,18,09,02,1.70
2013,12,18,09,03,1.70
2013,12,18,09,04,1.70
2013,12,18,09,05,1.70
2013,12,18,09,06,1.80
2013,12,18,09,07,1.80
2013,12,18,09,08,1.90
2013,12,18,09,09,2.00
2013,12,18,09,10,2.10
2013,12,18,09,11,2.10
2013,12,18,09,12,2.20
2013,12,18,09,13,2.30
2013,12,18,09,14,2.30
2013,12,18,09,15,2.40
2013,12,18,09,16,2.40
2013,12,18,09,17,2.50
2013,12,18,09,18,2.60
2013,12,18,09,19,2.60
2013,12,18,09,20,2.70
2013,12,18,09,21,2.80
2013,12,18,09,22,2.90
2013,12,18,09,23,3.00
2013,12,18,09,24,3.00
2013,12,18,09,25,3.10
2013,12,18,09,26,3.20
2013,12,18,09,27,3.20
2013,12,18,09,28,3.30
2013,12,18,09,29,3.30
2013,12,18,09,30,3.40
2013,12,18,09,31,3.40
2013,12,18,09,32,3.40
2013,12,18,09,33,3.50
2013,12,18,09,34,3.50
2013,12,18,09,35,3.60
2013,12,18,09,36,3.60
2013,12,18,09,37,3.60
2013,12,18,09,38,3.70
2013,12,18,09,39,3.70
2013,12,18,09,40,3.70
2013,12,18,09,41,3.70
2013,12,18,09,42,3.70
2013,12,18,09,43,3.70
2013,12,18,09,44,3.80
2013,12,18,09,45,3.80
2013,12,18,09,46,3.80
2013,12,18,09,47,3.80
2013,12,18,09,48,3.80
2013,12,18,09,49,3.90
2013,12,18,09,50,3.90
2013,12,18,09,51,3.90
2013,12,18,09,52,3.90
2013,12,18,09,53,3.90
2013,12,18,09,54,3.90
2013,12,18,09,55,3.90
2013,12,18,09,56,3.90
2013,12,18,09,57,3.90
2013,12,18,09,58,3.90
2013,12,18,09,59,3.90
2013,12,18,10,00,3.90
2013,12,18,10,01,3.80
2013,12,18,10,02,3.80
2013,12,18,10,03,3.80
2013,12,18,10,04,3.80
2013,12,18,10,05,3.80
2013,12,18,10,06,3.80
2013,12,18,10,07,3.80
2013,12,18,10,08,3.80
2013,12,18,10,09,3.80
2013,12,18,10,10,3.80
2013,12,18,10,11,3.80
2013,12,18,10,12,3.80
2013,12,18,10,13,3.90
2013,12,18,10,14,3.90
2013,12,18,10,15,3.90
2013,12,18,10,16,3.90
2013,12,18,10,17,3.90
2013,12,18,10,18,3.90
2013,12,18,10,19,4.00
2013,12,18,10,20,4.00
2013,12,18,10,21,4.00
2013,12,18,10,22,4.10
2013,12,18,10,23,4.20
2013,12,18,10,24,4.20
2013,12,18,10,25,4.30
2013,12,18,10,26,4.30
2013,12,18,10,27,4.30
2013,12,18,10,28,4.40
2013,12,18,10,29,4.40
2013,12,18,10,30,4.50
2013,12,18,10,31,4.50
2013,12,18,10,32,4.50
2013,12,18,10,33,4.60
2013,12,18,10,34,4.60
2013,12,18,10,35,4.60
2013,12,18,10,36,4.70
2013,12,18,10,37,4.70
2013,12,18,10,38,4.70
2013,12,18,10,39,4.70
2013,12,18,10,40,4.70
2013,12,18,10,41,4.80
2013,12,18,10,42,4.80
2013,12,18,10,43,4.80
2013,12,18,10,44,4.80
2013,12,18,10,45,4.80
2013,12,18,10,46,4.80
2013,12,18,10,47,4.90
2013,12,18,10,48,4.90
2013,12,18,10,49,4.90
2013,12,18,10,50,4.90
2013,12,18,10,51,4.90
2013,12,18,10,52,5.00
2013,12,18,10,53,5.00
2013,12,18,10,54,5.00
2013,12,18,10,55,5.10
2013,12,18,10,56,5.10
2013,12,18,10,57,5.10
2013,12,18,10,58,5.20
2013,12,18,10,59,5.20
2013,12,18,11,00,5.20
2013,12,18,11,01,5.20
2013,12,18,11,02,5.30
2013,12,18,11,03,5.30
2013,12,18,11,04,5.30
2013,12,18,11,05,5.30
2013,12,18,11,06,5.30
2013,12,18,11,07,5.40
2013,12,18,11,08,5.40
2013,12,18,11,09,5.40
2013,12,18,11,10,5.40
2013,12,18,11,11,5.40
2013,12,18,11,12,5.40
2013,12,18,11,13,5.50
2013,12,18,11,14,5.50
2013,12,18,11,15,5.50
2013,12,18,11,16,5.50
2013,12,18,11,17,5.50
2013,12,18,11,18,5.60
2013,12,18,11,19,5.60
2013,12,18,11,20,5.60
2013,12,18,11,21,5.60
2013,12,18,11,22,5.60
2013,12,18,11,23,5.60
2013,12,18,11,24,5.70
2013,12,18,11,25,5.70
2013,12,18,11,26,5.70
2013,12,18,11,27,5.70
2013,12,18,11,28,5.70
2013,12,18,11,29,5.80
2013,12,18,11,30,5.80
2013,12,18,11,31,5.80
2013,12,18,11,32,5.80
2013,12,18,11,33,5.80
2013,12,18,11,34,5.80
2013,12,18,11,35,5.80
2013,12,18,11,36,5.90
2013,12,18,11,37,5.90
2013,12,18,11,38,6.00
2013,12,18,11,39,6.00
2013,12,18,11,40,6.00
2013,12,18,11,41,6.00
2013,12,18,11,42,6.00
2013,12,18,11,43,6.00
2013,12,18,11,44,6.00
2013,12,18,11,45,6.00
2013,12,18,11,46,6.00
2013,12,18,11,47,6.00
2013,12,18,11,48,6.00
2013,12,18,11,49,6.00
2013,12,18,11,50,6.00
2013,12,18,11,51,6.00
2013,12,18,11,52,6.00
2013,12,18,11,53,6.10
2013,12,18,11,54,6.10
2013,12,18,11,55,6.10
2013,12,18,11,56,6.10
2013,12,18,11,57,6.10
2013,12,18,11,58,6.20
2013,12,18,11,59,6.20
2013,12,18,12,00,6.20
2013,12,18,12,01,6.20
2013,12,18,12,02,6.20
2013,12,18,12,03,6.20
2013,12,18,12,04,6.20
2013,12,18,12,05,6.20
2013,12,18,12,06,6.20
2013,12,18,12,07,6.20
2013,12,18,12,08,6.30
2013,12,18,12,09,6.30
2013,12,18,12,10,6.30
2013,12,18,12,11,6.30
2013,12,18,12,12,6.30
2013,12,18,12,13,6.40
2013,12,18,12,14,6.40
2013,12,18,12,15,6.40
2013,12,18,12,16,6.40
2013,12,18,12,17,6.40
2013,12,18,12,18,6.40
2013,12,18,12,19,6.40
2013,12,18,12,20,6.40
2013,12,18,12,21,6.40
2013,12,18,12,22,6.40
2013,12,18,12,23,6.40
2013,12,18,12,24,6.40
2013,12,18,12,25,6.40
2013,12,18,12,26,6.40
2013,12,18,12,27,6.40
2013,12,18,12,28,6.40
2013,12,18,12,29,6.40
2013,12,18,12,30,6.40
2013,12,18,12,31,6.40
2013,12,18,12,32,6.50
2013,12,18,12,33,6.50
2013,12,18,12,34,6.60
2013,12,18,12,35,6.60
2013,12,18,12,36,6.60
2013,12,18,12,37,6.60
2013,12,18,12,38,6.60
2013,12,18,12,39,6.60
2013,12,18,12,40,6.60
2013,12,18,12,41,6.60
2013,12,18,12,42,6.60
2013,12,18,12,43,6.60
2013,12,18,12,44,6.60
2013,12,18,12,45,6.50
2013,12,18,12,46,6.50
2013,12,18,12,47,6.40
2013,12,18,12,48,6.40
2013,12,18,12,49,6.40
2013,12,18,12,50,6.40
2013,12,18,12,51,6.40
2013,12,18,12,52,6.40
2013,12,18,12,53,6.40
2013,12,18,12,54,6.40
2013,12,18,12,55,6.40
2013,12,18,12,56,6.40
2013,12,18,12,57,6.40
2013,12,18,12,58,6.30
2013,12,18,12,59,6.30
2013,12,18,13,00,6.30
2013,12,18,13,01,6.40
2013,12,18,13,02,6.40
2013,12,18,13,03,6.40
2013,12,18,13,04,6.40
2013,12,18,13,05,6.40
2013,12,18,13,06,6.50
2013,12,18,13,07,6.50
2013,12,18,13,08,6.50
2013,12,18,13,09,6.50
2013,12,18,13,10,6.50
2013,12,18,13,11,6.50
2013,12,18,13,12,6.50
2013,12,18,13,13,6.50
2013,12,18,13,14,6.50
2013,12,18,13,15,6.50
2013,12,18,13,16,6.50
2013,12,18,13,17,6.50
2013,12,18,13,18,6.50
2013,12,18,13,19,6.50
2013,12,18,13,20,6.40
2013,12,18,13,21,6.40
2013,12,18,13,22,6.40
2013,12,18,13,23,6.30
2013,12,18,13,24,6.30
2013,12,18,13,25,6.30
2013,12,18,13,26,6.30
2013,12,18,13,27,6.20
2013,12,18,13,28,6.20
2013,12,18,13,29,6.10
2013,12,18,13,30,6.10
2013,12,18,13,31,6.00
2013,12,18,13,32,6.00
2013,12,18,13,33,6.00
2013,12,18,13,34,5.90
2013,12,18,13,35,5.90
2013,12,18,13,36,5.80
2013,12,18,13,37,5.80
2013,12,18,13,38,5.80
2013,12,18,13,39,5.70
2013,12,18,13,40,5.70
2013,12,18,13,41,5.70
2013,12,18,13,42,5.70
2013,12,18,13,43,5.60
2013,12,18,13,44,5.60
2013,12,18,13,45,5.60
2013,12,18,13,46,5.50
2013,12,18,13,47,5.50
2013,12,18,13,48,5.50
2013,12,18,13,49,5.40
2013,12,18,13,50,5.40
2013,12,18,13,51,5.40
2013,12,18,13,52,5.30
2013,12,18,13,53,5.30
2013,12,18,13,54,5.30
2013,12,18,13,55,5.30
2013,12,18,13,56,5.20
2013,12,18,13,57,5.20
2013,12,18,13,58,5.20
2013,12,18,13,59,5.20
2013,12,18,14,00,5.10
2013,12,18,14,01,5.10
2013,12,18,14,02,5.10
2013,12,18,14,03,5.10
2013,12,18,14,04,5.10
2013,12,18,14,05,5.00
2013,12,18,14,06,5.00
2013,12,18,14,07,5.00
2013,12,18,14,08,5.00
2013,12,18,14,09,4.90
2013,12,18,14,10,4.90
2013,12,18,14,11,4.90
2013,12,18,14,12,4.90
2013,12,18,14,13,4.90
2013,12,18,14,14,4.90
2013,12,18,14,15,4.80
2013,12,18,14,16,4.80
2013,12,18,14,17,4.80
2013,12,18,14,18,4.80
2013,12,18,14,19,4.80
2013,12,18,14,20,4.80
2013,12,18,14,21,4.80
2013,12,18,14,22,4.80
2013,12,18,14,23,4.80
2013,12,18,14,24,4.70
2013,12,18,14,25,4.70
2013,12,18,14,26,4.70
2013,12,18,14,27,4.70
2013,12,18,14,28,4.70
2013,12,18,14,29,4.70
2013,12,18,14,30,4.60
2013,12,18,14,31,4.60
2013,12,18,14,32,4.60
2013,12,18,14,33,4.60
2013,12,18,14,34,4.60
2013,12,18,14,35,4.60
2013,12,18,14,36,4.50
2013,12,18,14,37,4.50
2013,12,18,14,38,4.50
2013,12,18,14,39,4.50
2013,12,18,14,40,4.40
2013,12,18,14,41,4.40
2013,12,18,14,42,4.40
2013,12,18,14,43,4.40
2013,12,18,14,44,4.30
2013,12,18,14,45,4.30
2013,12,18,14,46,4.30
2013,12,18,14,47,4.30
2013,12,18,14,48,4.30
2013,12,18,14,49,4.30
2013,12,18,14,50,4.30
2013,12,18,14,51,4.20
2013,12,18,14,52,4.20
2013,12,18,14,53,4.20
2013,12,18,14,54,4.20
2013,12,18,14,55,4.20
2013,12,18,14,56,4.20
2013,12,18,14,57,4.20
2013,12,18,14,58,4.20
2013,12,18,14,59,4.20
2013,12,18,15,00,4.10
2013,12,18,15,01,4.10
2013,12,18,15,02,4.10
2013,12,18,15,03,4.10
2013,12,18,15,04,4.10
2013,12,18,15,05,4.10
2013,12,18,15,06,4.10
2013,12,18,15,07,4.10
2013,12,18,15,08,4.10
2013,12,18,15,09,4.10
2013,12,18,15,10,4.10
2013,12,18,15,11,4.10
2013,12,18,15,12,4.10
2013,12,18,15,13,4.10
2013,12,18,15,14,4.00
2013,12,18,15,15,4.00
2013,12,18,15,16,4.00
2013,12,18,15,17,3.90
2013,12,18,15,18,3.90
2013,12,18,15,19,3.90
2013,12,18,15,20,3.90
2013,12,18,15,21,3.90
2013,12,18,15,22,3.90
2013,12,18,15,23,3.90
2013,12,18,15,24,3.90
2013,12,18,15,25,3.80
2013,12,18,15,26,3.80
2013,12,18,15,27,3.80
2013,12,18,15,28,3.80
2013,12,18,15,29,3.80
2013,12,18,15,30,3.80
2013,12,18,15,31,3.80
2013,12,18,15,32,3.70
2013,12,18,15,33,3.70
2013,12,18,15,34,3.70
2013,12,18,15,35,3.70
2013,12,18,15,36,3.70
2013,12,18,15,37,3.70
2013,12,18,15,38,3.70
2013,12,18,15,39,3.60
2013,12,18,15,40,3.60
2013,12,18,15,41,3.60
2013,12,18,15,42,3.60
2013,12,18,15,43,3.60
2013,12,18,15,44,3.50
2013,12,18,15,45,3.50
2013,12,18,15,46,3.50
2013,12,18,15,47,3.50
2013,12,18,15,48,3.50
2013,12,18,15,49,3.40
2013,12,18,15,50,3.40
2013,12,18,15,51,3.40
2013,12,18,15,52,3.40
2013,12,18,15,53,3.30
2013,12,18,15,54,3.30
2013,12,18,15,55,3.30
2013,12,18,15,56,3.30
2013,12,18,15,57,3.30
2013,12,18,15,58,3.30
2013,12,18,15,59,3.30
2013,12,18,16,00,3.20
2013,12,18,16,01,3.20
2013,12,18,16,02,3.20
2013,12,18,16,03,3.20
2013,12,18,16,04,3.20
2013,12,18,16,05,3.10
2013,12,18,16,06,3.10
2013,12,18,16,07,3.10
2013,12,18,16,08,3.00
2013,12,18,16,09,3.00
2013,12,18,16,10,3.00
2013,12,18,16,11,2.90
2013,12,18,16,12,2.90
2013,12,18,16,13,2.80
2013,12,18,16,14,2.80
2013,12,18,16,15,2.70
2013,12,18,16,16,2.70
2013,12,18,16,17,2.70
2013,12,18,16,18,2.70
2013,12,18,16,19,2.60
2013,12,18,16,20,2.60
2013,12,18,16,21,2.60
2013,12,18,16,22,2.50
2013,12,18,16,23,2.50
2013,12,18,16,24,2.40
2013,12,18,16,25,2.40
2013,12,18,16,26,2.40
2013,12,18,16,27,2.30
2013,12,18,16,28,2.30
2013,12,18,16,29,2.30
2013,12,18,16,30,2.30
2013,12,18,16,31,2.30
2013,12,18,16,32,2.30
2013,12,18,16,33,2.30
2013,12,18,16,34,2.30
2013,12,18,16,35,2.30
2013,12,18,16,36,2.30
2013,12,18,16,37,2.30
2013,12,18,16,38,2.30
2013,12,18,16,39,2.30
2013,12,18,16,40,2.30
2013,12,18,16,41,2.30
2013,12,18,16,42,2.30
2013,12,18,16,43,2.30
2013,12,18,16,44,2.30
2013,12,18,16,45,2.30
2013,12,18,16,46,2.30
2013,12,18,16,47,2.30
2013,12,18,16,48,2.30
2013,12,18,16,49,2.30
2013,12,18,16,50,2.20
2013,12,18,16,51,2.30
2013,12,18,16,52,2.20
2013,12,18,16,53,2.20
2013,12,18,16,54,2.20
2013,12,18,16,55,2.20
2013,12,18,16,56,2.20
2013,12,18,16,57,2.20
2013,12,18,16,58,2.20
2013,12,18,16,59,2.20
2013,12,18,17,00,2.20
2013,12,18,17,01,2.20
2013,12,18,17,02,2.20
2013,12,18,17,03,2.20
2013,12,18,17,04,2.20
2013,12,18,17,05,2.20
2013,12,18,17,06,2.20
2013,12,18,17,07,2.30
2013,12,18,17,08,2.30
2013,12,18,17,09,2.30
2013,12,18,17,10,2.30
2013,12,18,17,11,2.30
2013,12,18,17,12,2.30
2013,12,18,17,13,2.30
2013,12,18,17,14,2.30
2013,12,18,17,15,2.30
2013,12,18,17,16,2.30
2013,12,18,17,17,2.30
2013,12,18,17,18,2.30
2013,12,18,17,19,2.30
2013,12,18,17,20,2.30
2013,12,18,17,21,2.30
2013,12,18,17,22,2.30
2013,12,18,17,23,2.30
2013,12,18,17,24,2.30
2013,12,18,17,25,2.30
2013,12,18,17,26,2.30
2013,12,18,17,27,2.30
2013,12,18,17,28,2.30
2013,12,18,17,29,2.30
2013,12,18,17,30,2.30
2013,12,18,17,31,2.30
2013,12,18,17,32,2.30
2013,12,18,17,33,2.30
2013,12,18,17,34,2.30
2013,12,18,17,35,2.30
2013,12,18,17,36,2.30
2013,12,18,17,37,2.30
2013,12,18,17,38,2.20
2013,12,18,17,39,2.20
2013,12,18,17,40,2.20
2013,12,18,17,41,2.20
2013,12,18,17,42,2.20
2013,12,18,17,43,2.20
2013,12,18,17,44,2.20
2013,12,18,17,45,2.20
2013,12,18,17,46,2.20
2013,12,18,17,47,2.20
2013,12,18,17,48,2.20
2013,12,18,17,49,2.20
2013,12,18,17,50,2.20
2013,12,18,17,51,2.20
2013,12,18,17,52,2.20
2013,12,18,17,53,2.20
2013,12,18,17,54,2.20
2013,12,18,17,55,2.10
2013,12,18,17,56,2.10
2013,12,18,17,57,2.10
2013,12,18,17,58,2.10
2013,12,18,17,59,2.20
2013,12,18,18,00,2.10
2013,12,18,18,01,2.10
2013,12,18,18,02,2.10
2013,12,18,18,03,2.20
2013,12,18,18,04,2.10
2013,12,18,18,05,2.10
2013,12,18,18,06,2.10